Date String (YYYY-MM-DD hh:mm:ss) UTC,Instrument flags,absolute air pressure of the measurement (hPa),sample flow rate (lpm),inlet stack bypass flow (lpm),air temperature of the measurement (°C),ambient temperature measured by the external sensor (°C),aerosol sample conditioner tube jacket temperature (°C),OPC LED temperature (°C),internal box temperature (°C),relative humidity of the measurement (%),span deviation,mass concentration of particles derived from Lorenz-Mie calculation of OPC scattering (μg/m³),mass concentration of particles derived from Lorenz-Mie calculation of OPC scattering (μg/m³),mass concentration of particles derived from Lorenz-Mie calculation of OPC scattering (μg/m³)
DateTimeUTC,F1_M11,P_M11,Q1_M11,Q2_M11,T1_M11,T2_M11,T3_M11,T4_M11,T5_M11,U1_M11,ZSPAN_M11,X2_M11,X0_M11,X1_M11
2023-09-08 21:00:00,SystemResetWarning,0833.8,5.01,000.00,027.7,024.5,000.0,035.8,029.2,16.0,0000.7,0006.06,0016.93,0004.86
2023-09-08 21:01:00,SystemResetWarning,0833.8,4.99,000.00,027.7,024.9,000.0,035.8,029.2,16.0,0001.1,0006.07,0017.06,0004.88
2023-09-08 21:02:00,SystemResetWarning,0833.8,5.00,000.00,027.7,025.3,000.0,035.9,029.2,16.4,0001.4,0006.08,0016.92,0004.88
2023-09-08 21:03:00,SystemResetWarning,0833.8,5.02,000.00,027.7,025.7,000.0,035.9,029.3,17.2,0001.5,0006.07,0016.53,0004.88
2023-09-08 21:04:00,SystemResetWarning,0833.7,4.99,000.00,027.7,026.1,000.0,035.9,029.4,17.8,0001.7,0006.10,0016.91,0004.89
2023-09-08 21:05:00,SystemResetWarning,0833.7,5.00,000.00,027.8,026.5,000.0,035.9,029.5,16.1,0001.7,0006.11,0017.19,0004.89
2023-09-08 21:06:00,SystemResetWarning,0833.7,5.00,000.00,027.9,026.7,000.0,036.0,029.6,16.6,0001.6,0006.11,0016.45,0004.89
2023-09-08 21:07:00,SystemResetWarning,0833.6,4.98,000.00,027.9,025.8,000.0,035.9,029.4,15.4,0001.6,0006.06,0016.07,0004.87
2023-09-08 21:08:00,SystemResetWarning,0833.7,5.01,000.00,027.8,024.5,000.0,035.9,029.2,16.1,0001.8,0006.01,0015.92,0004.87
2023-09-08 21:09:00,SystemResetWarning,0833.6,5.02,000.00,027.7,024.5,000.0,035.8,029.2,15.8,0002.1,0005.94,0015.37,0004.86
2023-09-08 21:10:00,SystemResetWarning,0833.7,4.98,000.00,027.7,024.8,000.0,035.8,029.2,15.2,0002.3,0005.87,0015.49,0004.85
2023-09-08 21:11:00,SystemResetWarning,0833.7,4.99,000.00,027.7,025.3,000.0,035.9,029.2,15.3,0002.6,0005.85,0015.32,0004.84
2023-09-08 21:12:00,SystemResetWarning,0833.7,5.01,000.00,027.7,025.7,000.0,035.9,029.3,15.8,0002.4,0005.81,0015.39,0004.82
2023-09-08 21:13:00,SystemResetWarning,0833.7,5.01,000.00,027.7,026.1,000.0,035.9,029.4,15.5,0002.2,0005.76,0014.62,0004.77
2023-09-08 21:14:00,SystemResetWarning,0833.8,5.00,000.00,027.8,026.5,000.0,035.9,029.5,15.3,0001.9,0005.71,0014.17,0004.73
2023-09-08 21:15:00,SystemResetWarning,0833.8,4.99,000.00,027.9,026.7,000.0,036.0,029.6,15.2,0001.9,0005.63,0013.64,0004.70
2023-09-08 21:16:00,SystemResetWarning,0833.7,4.98,000.00,027.9,025.9,000.0,035.9,029.4,15.4,0002.0,0005.60,0013.48,0004.69
2023-09-08 21:17:00,SystemResetWarning,0833.7,5.00,000.00,027.8,024.5,000.0,035.9,029.1,15.7,0002.0,0005.61,0013.33,0004.69
2023-09-08 21:18:00,SystemResetWarning,0833.7,5.02,000.00,027.7,024.5,000.0,035.8,029.2,15.1,0001.9,0005.69,0013.75,0004.69
2023-09-08 21:19:00,SystemResetWarning,0833.7,5.00,000.00,027.7,024.8,000.0,035.8,029.2,15.2,0001.5,0005.77,0013.89,0004.71
2023-09-08 21:20:00,SystemResetWarning,0833.7,5.00,000.00,027.7,025.2,000.0,035.9,029.2,15.6,0001.2,0005.87,0014.57,0004.74
2023-09-08 21:21:00,SystemResetWarning,0833.7,5.00,000.00,027.7,025.7,000.0,035.9,029.3,16.1,0001.0,0005.93,0014.27,0004.76
2023-09-08 21:22:00,SystemResetWarning,0833.7,5.00,000.00,027.7,026.1,000.0,035.9,029.4,15.9,0000.9,0005.94,0014.64,0004.76
2023-09-08 21:23:00,SystemResetWarning,0833.7,5.00,000.00,027.8,026.4,000.0,036.0,029.5,15.5,0001.0,0006.01,0015.44,0004.77
2023-09-08 21:24:00,SystemResetWarning,0833.6,5.00,000.00,027.9,026.4,000.0,036.0,029.5,15.1,0000.9,0006.04,0016.60,0004.79
2023-09-08 21:25:00,SystemResetWarning,0833.7,4.98,000.00,027.8,025.1,000.0,035.9,029.2,15.0,0000.9,0006.12,0018.93,0004.81
2023-09-08 21:26:00,SystemResetWarning,0833.7,5.02,000.00,027.7,024.4,000.0,035.8,029.0,14.8,0000.8,0006.17,0019.77,0004.83
2023-09-08 21:27:00,SystemResetWarning,0833.6,5.00,000.00,027.7,024.7,000.0,035.8,029.1,14.9,0000.6,0006.16,0019.71,0004.83
2023-09-08 21:28:00,SystemResetWarning,0833.6,4.99,000.00,027.7,025.1,000.0,035.8,029.1,15.1,0000.9,0006.19,0020.09,0004.83
2023-09-08 21:29:00,SystemResetWarning,0833.6,5.00,000.00,027.7,025.5,000.0,035.9,029.2,15.1,0001.3,0006.10,0019.17,0004.82
2023-09-08 21:30:00,SystemResetWarning,0833.6,5.01,000.00,027.7,025.9,000.0,035.9,029.3,14.9,0001.7,0005.98,0018.32,0004.78
2023-09-08 21:31:00,SystemResetWarning,0833.5,5.01,000.00,027.8,026.3,000.0,035.9,029.4,15.1,0002.1,0005.91,0017.97,0004.72
2023-09-08 21:32:00,SystemResetWarning,0833.5,5.00,000.00,027.8,026.6,000.0,036.0,029.5,15.2,0002.2,0005.87,0018.60,0004.69
2023-09-08 21:33:00,SystemResetWarning,0833.5,5.00,000.00,027.9,026.6,000.0,036.0,029.6,14.9,0002.2,0005.82,0018.37,0004.67
2023-09-08 21:34:00,SystemResetWarning,0833.5,4.99,000.00,027.8,025.2,000.0,035.9,029.3,15.3,0002.0,0005.76,0017.69,0004.66
2023-09-08 21:35:00,SystemResetWarning,0833.4,5.01,000.00,027.8,024.4,000.0,035.8,029.2,15.8,0002.2,0005.71,0016.87,0004.64
2023-09-08 21:36:00,SystemResetWarning,0833.4,5.01,000.00,027.7,024.7,000.0,035.8,029.2,15.8,0002.2,0005.67,0015.39,0004.62
2023-09-08 21:37:00,SystemResetWarning,0833.5,4.99,000.00,027.7,025.0,000.0,035.8,029.2,16.0,0002.0,0005.64,0014.59,0004.61
2023-09-08 21:38:00,SystemResetWarning,0833.5,5.00,000.00,027.7,025.5,000.0,035.9,029.3,15.2,0003.1,0005.62,0014.88,0004.61
2023-09-08 21:39:00,SystemResetWarning,0833.4,5.00,000.00,027.7,025.9,000.0,035.9,029.4,14.9,0003.1,0005.60,0015.78,0004.58
2023-09-08 21:40:00,SystemResetWarning,0833.4,5.00,000.00,027.8,026.3,000.0,035.9,029.5,15.0,0002.6,0005.57,0016.50,0004.55
2023-09-08 21:41:00,SystemResetWarning,0833.4,5.00,000.00,027.8,026.4,000.0,036.0,029.5,15.3,0002.5,0005.57,0017.03,0004.53
2023-09-08 21:42:00,SystemResetWarning,0833.4,4.98,000.00,027.8,025.1,000.0,035.9,029.2,15.2,0002.0,0005.51,0018.07,0004.52
2023-09-08 21:43:00,SystemResetWarning,0833.4,5.01,000.00,027.7,024.3,000.0,035.8,029.1,15.3,0002.4,0005.46,0017.26,0004.50
2023-09-08 21:44:00,SystemResetWarning,0833.4,5.01,000.00,027.7,024.6,000.0,035.8,029.2,15.3,0002.7,0005.41,0017.60,0004.48
2023-09-08 21:45:00,SystemResetWarning,0833.4,5.00,000.00,027.7,025.0,000.0,035.8,029.1,14.7,0002.8,0005.36,0018.51,0004.44
2023-09-08 21:46:00,SystemResetWarning,0833.4,4.99,000.00,027.7,025.4,000.0,035.9,029.2,14.7,0003.0,0005.29,0018.13,0004.39
2023-09-08 21:47:00,SystemResetWarning,0833.4,5.00,000.00,027.7,025.9,000.0,035.9,029.3,15.0,0003.3,0005.21,0017.58,0004.38
2023-09-08 21:48:00,SystemResetWarning,0833.4,5.01,000.00,027.7,026.3,000.0,035.9,029.4,15.2,0003.7,0005.18,0017.14,0004.35
2023-09-08 21:49:00,SystemResetWarning,0833.4,5.00,000.00,027.8,026.6,000.0,035.9,029.5,14.8,0002.7,0005.12,0016.57,0004.31
2023-09-08 21:50:00,SystemResetWarning,0833.4,4.99,000.00,027.8,026.0,000.0,035.9,029.4,14.3,0002.4,0005.05,0015.27,0004.27
2023-09-08 21:51:00,SystemResetWarning,0833.2,4.99,000.00,027.8,024.6,000.0,035.8,029.1,14.3,0001.9,0005.00,0014.44,0004.23
2023-09-08 21:52:00,SystemResetWarning,0833.2,5.02,000.00,027.7,024.5,000.0,035.8,029.1,14.3,0002.0,0004.93,0014.60,0004.19
2023-09-08 21:53:00,SystemResetWarning,0833.2,5.00,000.00,027.7,024.8,000.0,035.8,029.1,14.2,0002.1,0004.88,0013.27,0004.14
2023-09-08 21:54:00,SystemResetWarning,0833.2,5.00,000.00,027.6,025.2,000.0,035.8,029.2,14.2,0001.3,0004.85,0013.47,0004.10
2023-09-08 21:55:00,SystemResetWarning,0833.3,5.00,000.00,027.7,025.6,000.0,035.8,029.2,14.6,0000.8,0004.85,0013.16,0004.07
2023-09-08 21:56:00,SystemResetWarning,0833.2,5.00,000.00,027.7,026.0,000.0,035.9,029.3,14.9,0000.0,0004.81,0011.91,0004.04
2023-09-08 21:57:00,SystemResetWarning,0833.2,5.00,000.00,027.8,026.4,000.0,035.9,029.5,15.2,0001.1,0004.80,0011.76,0004.02
2023-09-08 21:58:00,SystemResetWarning,0833.2,5.00,000.00,027.8,026.7,000.0,035.9,029.6,15.7,0000.6,0004.76,0011.51,0003.99
2023-09-08 21:59:00,SystemResetWarning,0833.2,4.99,000.00,027.9,026.2,000.0,035.9,029.5,15.0,0000.4,0004.71,0011.13,0003.96
